| time (UTC) | temp F | wind direction | speed MPH | gust MPH | rain 1hr in | rain 24hr in | rain mn in | humidity % | barometer mb |
| 20260505055505 | 59 | 186 | 2.0 | 10.0 | 0.00 | 0.11 | 0.00 | 53 | 998.5 |
| 20260505055006 | 59 | 157 | 2.0 | 10.0 | 0.00 | 0.11 | 0.00 | 53 | 998.6 |
| 20260505054506 | 59 | 179 | 2.0 | 7.0 | 0.00 | 0.11 | 0.00 | 53 | 998.6 |
| 20260505054004 | 59 | 148 | 2.0 | 9.0 | 0.00 | 0.11 | 0.00 | 53 | 998.7 |
| 20260505053503 | 59 | 172 | 4.0 | 10.0 | 0.00 | 0.11 | 0.00 | 53 | 998.7 |
| 20260505053001 | 59 | 146 | 4.0 | 10.0 | 0.00 | 0.11 | 0.00 | 53 | 998.8 |
| 20260505052501 | 59 | 153 | 1.0 | 7.0 | 0.00 | 0.11 | 0.00 | 54 | 998.8 |
| 20260505052100 | 59 | 140 | 2.0 | 8.0 | 0.00 | 0.11 | 0.00 | 53 | 998.9 |
| 20260505051600 | 59 | 179 | 4.0 | 8.0 | 0.00 | 0.11 | 0.00 | 53 | 998.8 |
| 20260505051059 | 59 | 151 | 2.0 | 6.0 | 0.00 | 0.11 | 0.00 | 53 | 998.8 |
| 20260505050601 | 59 | 178 | 1.0 | 8.0 | 0.00 | 0.11 | 0.00 | 53 | 998.9 |
| 20260505041605 | 59 | 215 | 2.0 | 8.0 | 0.00 | 0.11 | 0.00 | 54 | 999.0 |
| 20260505041054 | 59 | 130 | 1.0 | 8.0 | 0.00 | 0.11 | 0.00 | 55 | 999.1 |
| 20260505040553 | 60 | 185 | 1.0 | 7.0 | 0.00 | 0.11 | 0.00 | 54 | 999.1 |
| 20260505040053 | 60 | 178 | 3.0 | 10.0 | 0.00 | 0.11 | 0.11 | 54 | 999.1 |
| 20260505035552 | 60 | 151 | 1.0 | 10.0 | 0.00 | 0.11 | 0.11 | 54 | 999.0 |
| 20260505035053 | 59 | 161 | 3.0 | 7.0 | 0.00 | 0.11 | 0.11 | 55 | 999.1 |
| 20260505034552 | 59 | 155 | 2.0 | 6.0 | 0.00 | 0.11 | 0.11 | 54 | 999.1 |
| 20260505034052 | 60 | 162 | 1.0 | 5.0 | 0.00 | 0.11 | 0.11 | 54 | 999.1 |
| 20260505033551 | 60 | 206 | 1.0 | 5.0 | 0.00 | 0.11 | 0.11 | 54 | 999.1 |
| 20260505033051 | 60 | 180 | 1.0 | 5.0 | 0.00 | 0.11 | 0.11 | 54 | 999.1 |
| 20260505032552 | 60 | 194 | 1.0 | 5.0 | 0.00 | 0.11 | 0.11 | 54 | 999.2 |
| 20260505032054 | 60 | 185 | 1.0 | 5.0 | 0.00 | 0.11 | 0.11 | 54 | 999.2 |
| 20260505031553 | 59 | 173 | 3.0 | 5.0 | 0.00 | 0.11 | 0.11 | 54 | 999.2 |
| 20260505031050 | 59 | 136 | 1.0 | 6.0 | 0.00 | 0.11 | 0.11 | 55 | 999.3 |
| 20260505030550 | 59 | 155 | 1.0 | 7.0 | 0.00 | 0.11 | 0.11 | 55 | 999.3 |
| 20260505030101 | 59 | 134 | 3.0 | 7.0 | 0.00 | 0.11 | 0.11 | 55 | 999.4 |
| 20260505025550 | 59 | 166 | 2.0 | 7.0 | 0.00 | 0.11 | 0.11 | 55 | 999.4 |
| 20260505025051 | 58 | 157 | 1.0 | 7.0 | 0.00 | 0.11 | 0.11 | 56 | 999.4 |
| 20260505024554 | 58 | 195 | 1.0 | 5.0 | 0.00 | 0.11 | 0.11 | 57 | 999.4 |
| 20260505024050 | 58 | 167 | 2.0 | 5.0 | 0.00 | 0.11 | 0.11 | 57 | 999.4 |
| 20260505023549 | 58 | 158 | 1.0 | 4.0 | 0.00 | 0.11 | 0.11 | 57 | 999.5 |
| 20260505023050 | 58 | 170 | 1.0 | 5.0 | 0.00 | 0.11 | 0.11 | 57 | 999.5 |
| 20260505022549 | 58 | 190 | 1.0 | 5.0 | 0.00 | 0.11 | 0.11 | 57 | 999.6 |
| 20260505022049 | 57 | 210 | 1.0 | 5.0 | 0.00 | 0.11 | 0.11 | 57 | 999.6 |
| 20260505021554 | 57 | 123 | 1.0 | 4.0 | 0.00 | 0.11 | 0.11 | 58 | 999.6 |
| 20260505021048 | 58 | 153 | 0.0 | 4.0 | 0.00 | 0.11 | 0.11 | 57 | 999.6 |
| 20260505020548 | 58 | 155 | 0.0 | 5.0 | 0.00 | 0.11 | 0.11 | 58 | 999.7 |
| 20260505020058 | 57 | 171 | 0.0 | 2.0 | 0.00 | 0.11 | 0.11 | 58 | 999.7 |
| 20260505015549 | 58 | 146 | 0.0 | 2.0 | 0.00 | 0.11 | 0.11 | 58 | 999.6 |
| 20260505015049 | 58 | 149 | 0.0 | 1.0 | 0.00 | 0.11 | 0.11 | 57 | 999.6 |
| 20260505014548 | 58 | 149 | 0.0 | 2.0 | 0.00 | 0.11 | 0.11 | 57 | 999.7 |
| 20260505014048 | 58 | 149 | 0.0 | 2.0 | 0.00 | 0.11 | 0.11 | 57 | 999.7 |
| 20260505013551 | 58 | 143 | 0.0 | 2.0 | 0.00 | 0.11 | 0.11 | 58 | 999.6 |
| 20260505013048 | 57 | 142 | 0.0 | 3.0 | 0.00 | 0.11 | 0.11 | 58 | 999.6 |
| 20260505012548 | 57 | 131 | 1.0 | 3.0 | 0.00 | 0.11 | 0.11 | 59 | 999.6 |
| 20260505012047 | 58 | 153 | 0.0 | 2.0 | 0.00 | 0.11 | 0.11 | 59 | 999.6 |
| 20260505011547 | 58 | 153 | 0.0 | 2.0 | 0.00 | 0.11 | 0.11 | 59 | 999.5 |
| 20260505011047 | 58 | 153 | 0.0 | 2.0 | 0.00 | 0.11 | 0.11 | 58 | 999.6 |
| 20260505010548 | 58 | 153 | 0.0 | 2.0 | 0.00 | 0.11 | 0.11 | 58 | 999.6 |
| 20260505010105 | 58 | 134 | 0.0 | 2.0 | 0.00 | 0.11 | 0.11 | 59 | 999.5 |
| 20260505005546 | 58 | 134 | 1.0 | 2.0 | 0.00 | 0.11 | 0.11 | 58 | 999.5 |
| 20260505005046 | 59 | 134 | 1.0 | 2.0 | 0.00 | 0.11 | 0.11 | 58 | 999.5 |
| 20260505004546 | 59 | 134 | 0.0 | 2.0 | 0.00 | 0.11 | 0.11 | 58 | 999.5 |
| 20260505004045 | 59 | 134 | 0.0 | 2.0 | 0.00 | 0.11 | 0.11 | 58 | 999.5 |
| 20260505003545 | 60 | 134 | 1.0 | 2.0 | 0.00 | 0.11 | 0.11 | 56 | 999.4 |
| 20260505003050 | 60 | 134 | 1.0 | 3.0 | 0.00 | 0.11 | 0.11 | 56 | 999.3 |
| 20260505002548 | 60 | 134 | 1.0 | 3.0 | 0.00 | 0.11 | 0.11 | 55 | 999.3 |
| 20260505002046 | 60 | 121 | 1.0 | 3.0 | 0.00 | 0.11 | 0.11 | 55 | 999.3 |
| 20260505001545 | 61 | 153 | 1.0 | 4.0 | 0.00 | 0.11 | 0.11 | 56 | 999.3 |
| 20260505001047 | 61 | 136 | 1.0 | 3.0 | 0.00 | 0.11 | 0.11 | 54 | 999.2 |
| 20260505000544 | 62 | 134 | 1.0 | 3.0 | 0.00 | 0.11 | 0.11 | 53 | 999.2 |
| 20260505000052 | 62 | 146 | 1.0 | 3.0 | 0.00 | 0.11 | 0.11 | 52 | 999.1 |
| 20260504235548 | 63 | 144 | 1.0 | 3.0 | 0.00 | 0.11 | 0.11 | 52 | 999.1 |
| 20260504235144 | 63 | 146 | 1.0 | 4.0 | 0.00 | 0.11 | 0.11 | 51 | 999.0 |
| 20260504234543 | 64 | 140 | 2.0 | 4.0 | 0.00 | 0.11 | 0.11 | 49 | 999.0 |
| 20260504234043 | 64 | 157 | 0.0 | 4.0 | 0.00 | 0.11 | 0.11 | 49 | 999.0 |
| 20260504233546 | 64 | 162 | 1.0 | 4.0 | 0.00 | 0.11 | 0.11 | 47 | 998.8 |
| 20260504233050 | 65 | 167 | 1.0 | 4.0 | 0.00 | 0.11 | 0.11 | 47 | 998.7 |
| 20260504232544 | 65 | 219 | 1.0 | 5.0 | 0.00 | 0.11 | 0.11 | 47 | 998.6 |
| 20260504232041 | 65 | 214 | 1.0 | 5.0 | 0.00 | 0.11 | 0.11 | 47 | 998.6 |
| 20260504231541 | 65 | 253 | 1.0 | 4.0 | 0.00 | 0.11 | 0.11 | 46 | 998.5 |
| 20260504231041 | 66 | 355 | 0.0 | 4.0 | 0.00 | 0.11 | 0.11 | 46 | 998.4 |
| 20260504230542 | 66 | 161 | 1.0 | 4.0 | 0.00 | 0.11 | 0.11 | 47 | 998.4 |
| 20260504230058 | 66 | 212 | 0.0 | 4.0 | 0.00 | 0.11 | 0.11 | 46 | 998.3 |
| 20260504225543 | 66 | 213 | 1.0 | 4.0 | 0.00 | 0.11 | 0.11 | 46 | 998.3 |
| 20260504225044 | 66 | 222 | 2.0 | 4.0 | 0.00 | 0.11 | 0.11 | 46 | 998.3 |
| 20260504224556 | 66 | 345 | 0.0 | 7.0 | 0.00 | 0.11 | 0.11 | 47 | 998.2 |
| 20260504224039 | 66 | 194 | 1.0 | 7.0 | 0.00 | 0.11 | 0.11 | 47 | 998.1 |
| 20260504223539 | 66 | 150 | 0.0 | 4.0 | 0.00 | 0.11 | 0.11 | 50 | 998.1 |
| 20260504223039 | 66 | 275 | 0.0 | 8.0 | 0.00 | 0.11 | 0.11 | 49 | 998.0 |
| 20260504222540 | 66 | 309 | 2.0 | 8.0 | 0.00 | 0.11 | 0.11 | 47 | 998.0 |
| 20260504222038 | 66 | 209 | 2.0 | 6.0 | 0.00 | 0.11 | 0.11 | 47 | 998.0 |
| 20260504221539 | 66 | 108 | 1.0 | 4.0 | 0.00 | 0.11 | 0.11 | 48 | 998.1 |
| 20260504221037 | 66 | 296 | 1.0 | 4.0 | 0.00 | 0.11 | 0.11 | 49 | 998.2 |
| 20260504220537 | 66 | 137 | 1.0 | 4.0 | 0.00 | 0.11 | 0.11 | 48 | 998.1 |
| 20260504220040 | 66 | 167 | 2.0 | 6.0 | 0.00 | 0.11 | 0.11 | 47 | 998.1 |
| 20260504215536 | 66 | 138 | 0.0 | 6.0 | 0.00 | 0.11 | 0.11 | 48 | 998.1 |
| 20260504215040 | 66 | 173 | 1.0 | 6.0 | 0.00 | 0.11 | 0.11 | 48 | 998.2 |
| 20260504214543 | 66 | 153 | 1.0 | 8.0 | 0.00 | 0.11 | 0.11 | 48 | 998.2 |
| 20260504214036 | 66 | 142 | 3.0 | 8.0 | 0.00 | 0.11 | 0.11 | 47 | 998.3 |
| 20260504213536 | 66 | 167 | 1.0 | 5.0 | 0.00 | 0.11 | 0.11 | 48 | 998.1 |
| 20260504213036 | 66 | 141 | 1.0 | 5.0 | 0.00 | 0.11 | 0.11 | 48 | 998.1 |
| 20260504212535 | 66 | 142 | 2.0 | 6.0 | 0.00 | 0.11 | 0.11 | 47 | 998.3 |
| 20260504212035 | 66 | 138 | 2.0 | 7.0 | 0.00 | 0.11 | 0.11 | 47 | 998.0 |
| 20260504211537 | 66 | 165 | 1.0 | 10.0 | 0.00 | 0.11 | 0.11 | 48 | 998.2 |
| 20260504211035 | 66 | 262 | 3.0 | 10.0 | 0.00 | 0.11 | 0.11 | 46 | 998.1 |
| 20260504210535 | 67 | 173 | 4.0 | 9.0 | 0.00 | 0.11 | 0.11 | 45 | 998.0 |
| 20260504210043 | 67 | 139 | 2.0 | 13.0 | 0.00 | 0.11 | 0.11 | 46 | 998.1 |
| 20260504205535 | 68 | 252 | 4.0 | 13.0 | 0.00 | 0.11 | 0.11 | 45 | 998.0 |
| 20260504205034 | 68 | 174 | 1.0 | 11.0 | 0.00 | 0.11 | 0.11 | 46 | 998.0 |
| 20260504204538 | 67 | 180 | 5.0 | 17.0 | 0.00 | 0.11 | 0.11 | 45 | 998.1 |
| 20260504204034 | 67 | 179 | 5.0 | 17.0 | 0.00 | 0.11 | 0.11 | 45 | 998.0 |
| 20260504203534 | 67 | 171 | 5.0 | 11.0 | 0.00 | 0.11 | 0.11 | 45 | 998.0 |
| 20260504203034 | 68 | 232 | 6.0 | 12.0 | 0.00 | 0.11 | 0.11 | 43 | 998.1 |
| 20260504202532 | 69 | 193 | 3.0 | 9.0 | 0.00 | 0.11 | 0.11 | 45 | 998.2 |
| 20260504202031 | 69 | 321 | 2.0 | 7.0 | 0.00 | 0.11 | 0.11 | 46 | 998.2 |
| 20260504201529 | 68 | 186 | 2.0 | 9.0 | 0.00 | 0.11 | 0.11 | 46 | 998.3 |
| 20260504201029 | 68 | 285 | 3.0 | 9.0 | 0.00 | 0.11 | 0.11 | 47 | 998.3 |
| 20260504200530 | 67 | 197 | 2.0 | 8.0 | 0.00 | 0.11 | 0.11 | 47 | 998.5 |
| 20260504200028 | 67 | 328 | 4.0 | 9.0 | 0.00 | 0.11 | 0.11 | 48 | 998.5 |
| 20260504195524 | 67 | 246 | 2.0 | 10.0 | 0.00 | 0.11 | 0.11 | 49 | 998.5 |
| 20260504195023 | 66 | 315 | 2.0 | 11.0 | 0.00 | 0.11 | 0.11 | 49 | 998.7 |
| 20260504194522 | 65 | 246 | 3.0 | 11.0 | 0.00 | 0.11 | 0.11 | 49 | 998.7 |
| 20260504194021 | 65 | 112 | 2.0 | 10.0 | 0.00 | 0.11 | 0.11 | 48 | 998.9 |
| 20260504193521 | 65 | 167 | 2.0 | 10.0 | 0.00 | 0.11 | 0.11 | 48 | 998.9 |
| 20260504193020 | 65 | 26 | 3.0 | 10.0 | 0.00 | 0.11 | 0.11 | 51 | 999.0 |
| 20260504192519 | 64 | 235 | 2.0 | 11.0 | 0.00 | 0.11 | 0.11 | 51 | 999.1 |
| 20260504192017 | 64 | 175 | 5.0 | 11.0 | 0.00 | 0.11 | 0.11 | 51 | 999.2 |
| 20260504191520 | 64 | 178 | 5.0 | 17.0 | 0.00 | 0.11 | 0.11 | 50 | 999.2 |
| 20260504191018 | 63 | 153 | 7.0 | 16.0 | 0.00 | 0.11 | 0.11 | 52 | 999.2 |
| 20260504190520 | 63 | 305 | 5.0 | 10.0 | 0.00 | 0.11 | 0.11 | 52 | 999.3 |
| 20260504190013 | 63 | 148 | 3.0 | 10.0 | 0.00 | 0.11 | 0.11 | 52 | 999.4 |
| 20260504185513 | 62 | 299 | 2.0 | 13.0 | 0.00 | 0.11 | 0.11 | 54 | 999.5 |
| 20260504185010 | 62 | 155 | 3.0 | 13.0 | 0.00 | 0.11 | 0.11 | 56 | 999.5 |
| 20260504184510 | 61 | 249 | 3.0 | 12.0 | 0.00 | 0.11 | 0.11 | 56 | 999.6 |
| 20260504184009 | 60 | 109 | 4.0 | 11.0 | 0.00 | 0.11 | 0.11 | 57 | 999.7 |
| 20260504183512 | 61 | 223 | 3.0 | 10.0 | 0.00 | 0.11 | 0.11 | 56 | 999.7 |
| 20260504183008 | 61 | 300 | 4.0 | 11.0 | 0.00 | 0.11 | 0.11 | 62 | 999.8 |
| 20260504182506 | 60 | 271 | 3.0 | 11.0 | 0.00 | 0.11 | 0.11 | 60 | 1000.0 |
| 20260504182005 | 59 | 313 | 2.0 | 11.0 | 0.00 | 0.11 | 0.11 | 63 | 1000.2 |
| 20260504181505 | 60 | 249 | 2.0 | 11.0 | 0.00 | 0.11 | 0.11 | 63 | 1000.2 |
| 20260504181005 | 60 | 295 | 5.0 | 10.0 | 0.00 | 0.11 | 0.11 | 58 | 1000.1 |
| 20260504180504 | 60 | 231 | 2.0 | 14.0 | 0.00 | 0.11 | 0.11 | 61 | 1000.1 |
| 20260504180002 | 59 | 258 | 5.0 | 14.0 | 0.00 | 0.11 | 0.11 | 63 | 1000.3 |
| 20260504175500 | 59 | 175 | 6.0 | 15.0 | 0.00 | 0.11 | 0.11 | 64 | 1000.4 |
| 20260504175100 | 58 | 5 | 6.0 | 15.0 | 0.00 | 0.11 | 0.11 | 67 | 1000.3 |
| 20260504174559 | 58 | 319 | 1.0 | 8.0 | 0.00 | 0.11 | 0.11 | 62 | 1000.6 |
| 20260504174101 | 57 | 296 | 4.0 | 12.0 | 0.00 | 0.11 | 0.11 | 64 | 1000.5 |
| 20260504173557 | 57 | 122 | 3.0 | 12.0 | 0.00 | 0.11 | 0.11 | 67 | 1000.7 |
| 20260504173056 | 56 | 278 | 3.0 | 15.0 | 0.00 | 0.11 | 0.11 | 65 | 1000.7 |
| 20260504172556 | 56 | 327 | 4.0 | 15.0 | 0.00 | 0.11 | 0.11 | 67 | 1000.7 |
| 20260504172053 | 56 | 105 | 4.0 | 11.0 | 0.00 | 0.11 | 0.11 | 70 | 1000.6 |
| 20260504171552 | 55 | 217 | 4.0 | 11.0 | 0.00 | 0.11 | 0.11 | 80 | 1000.5 |
| 20260504171050 | 54 | 316 | 2.0 | 4.0 | 0.00 | 0.11 | 0.11 | 82 | 1000.6 |
| 20260504170548 | 53 | 175 | 0.0 | 7.0 | 0.00 | 0.11 | 0.11 | 79 | 1000.7 |
| 20260504151035 | 44 | 146 | 0.0 | 2.0 | 0.07 | 0.10 | 0.10 | 92 | 1001.5 |
| 20260504150535 | 44 | 146 | 0.0 | 3.0 | 0.07 | 0.10 | 0.10 | 92 | 1001.5 |
| 20260504141031 | 45 | 325 | 0.0 | 7.0 | 0.02 | 0.03 | 0.03 | 87 | 1001.3 |
| 20260504140531 | 45 | 325 | 0.0 | 7.0 | 0.02 | 0.03 | 0.03 | 85 | 1001.2 |
| 20260504130528 | 48 | 232 | 1.0 | 12.0 | 0.00 | 0.01 | 0.01 | 72 | 1000.5 |
| 20260504110511 | 44 | 139 | 1.0 | 3.0 | 0.00 | 0.00 | 0.00 | 86 | 1000.9 |
| 20260504100506 | 43 | 165 | 2.0 | 5.0 | 0.00 | 0.00 | 0.00 | 86 | 1001.0 |
| 20260504081557 | 43 | 202 | 2.0 | 5.0 | 0.00 | 0.00 | 0.00 | 76 | 1001.6 |
| 20260504081053 | 43 | 172 | 2.0 | 6.0 | 0.00 | 0.00 | 0.00 | 76 | 1001.6 |
| 20260504080553 | 43 | 134 | 2.0 | 4.0 | 0.00 | 0.00 | 0.00 | 75 | 1001.6 |